Location: ?????????
(38.1573°N, 23.3134°E)
Time: 22:57:16
(UTC+00:00)

Daily predictions for brighter satellites

Satellite Brightness Start Highest point End
(mag) Time Altitude Azimuth Time Altitude Azimuth Time Altitude Azimuth
Hubble Space Telescope 3.7 15:37:43 10° SSW 15:38:48 11° SSW 15:39:52 10° S
Cosmos 2251 Rocket 4.4 15:37:44 10° N 15:42:20 28° ENE 15:46:54 10° ESE
ISS -3.5 15:43:45 10° NW 15:47:01 48° NE 15:50:16 10° ESE
Lacrosse 5 2.2 15:42:44 10° SSW 15:47:37 52° SE 15:52:30 10° NE
Cosmos-2242 3.0 15:47:17 10° S 15:51:35 67° E 15:55:54 10° NNE
Meteor 2-2 Rocket 4.5 15:49:25 10° SSE 15:54:55 51° E 16:00:34 10° NNE
Cosmos 2151 4.3 15:51:04 10° NNW 15:55:08 45° W 15:59:11 10° SSW
USA 234 3.3 15:50:51 10° NE 15:57:26 88° SE 16:03:58 10° SW
COSMO-SKYMED 1 3.4 15:53:41 10° NE 15:57:33 31° E 16:01:23 10° SSE
Lacrosse 4 Rocket 1.9 15:55:00 10° N 15:59:03 38° ENE 16:02:59 10° SE
Cosmos 2026 Rocket 4.4 15:54:34 10° SSE 16:00:21 42° E 16:06:14 10° NNE
Cosmos 1818 3.6 15:56:50 10° SSW 16:02:15 85° ESE 16:07:44 10° NNE
Cosmos 2221 3.8 15:59:12 10° SE 16:02:17 20° E 16:04:18 15° NE
Meteor 1-25 Rocket 4.4 15:57:11 10° N 16:02:38 48° ENE 16:07:59 10° SSE
APEX 3.1 15:59:39 10° SW 16:02:43 57° WNW 16:05:31 10° NNE
Cosmos 1023 Rocket 4.5 15:58:57 10° N 16:04:02 58° ENE 16:09:02 10° SSE
CZ-2C R/B 2.9 16:03:17 10° SW 16:04:39 14° SSW 16:05:59 10° SSE
Cosmos 1812 2.7 16:03:20 10° S 16:07:00 79° W 16:10:42 10° N
AQUARIUS 4.1 16:05:32 10° SSE 16:10:00 89° ENE 16:14:28 10° NNW
CZ-2C R/B 4.4 16:09:30 10° SSW 16:12:46 35° W 16:16:04 10° NNW
Cosmos 1844 Rocket 2.8 16:09:53 10° S 16:15:17 55° ESE 16:20:21 12° NNE
Cosmos 2263 Rocket 3.9 16:10:41 10° WSW 16:15:26 29° WNW 16:20:14 10° N
Cosmos 1092 Rocket 4.0 16:11:42 10° S 16:17:42 60° E 16:23:44 10° NNE
Nadezhda 4 Rocket 4.3 16:11:44 10° SSW 16:17:50 70° W 16:23:58 10° N
Cosmos 1420 Rocket 4.1 16:18:56 10° S 16:23:59 52° ESE 16:28:11 15° NNE
ADEOS 4.0 16:22:35 10° SE 16:27:22 39° ENE 16:32:11 10° N
[s.n.58448] 2.2 16:25:04 10° WNW 16:27:38 85° NNE 16:28:02 59° ESE
USA 307 2.4 16:24:25 10° NW 16:28:15 69° NE 16:30:26 23° ESE
Cosmos 1933 3.2 16:24:24 10° S 16:28:21 72° E 16:32:19 10° NNE
BREEZE-M R/B 4.5 16:23:05 10° SW 16:28:45 81° SE 16:36:05 19° NE
Cosmos 1766 Rocket 4.3 16:25:31 10° NNE 16:29:20 29° ENE 16:33:06 10° SE
[s.n.58449] 2.1 16:27:44 10° WNW 16:30:14 89° N 16:30:27 73° ESE
Meteor 1-20 Rocket 4.4 16:25:11 10° NNW 16:30:47 79° W 16:36:28 10° S
[s.n.58459] 2.2 16:28:48 10° WNW 16:31:25 89° SSW 16:31:40 69° ESE
Cosmos 1140 Rocket 3.5 16:26:27 10° NNW 16:31:38 81° WSW 16:36:45 10° SSE
Cosmos 1624 Rocket 4.1 16:26:40 10° S 16:31:45 55° ESE 16:35:20 19° NNE
[s.n.58458] 2.2 16:29:31 10° WNW 16:32:07 88° SSW 16:32:21 71° ESE
[s.n.58456] 2.2 16:30:21 10° WNW 16:32:57 87° SSW 16:33:09 74° SE
[s.n.58447] 2.1 16:30:41 10° WNW 16:33:15 86° SSW 16:33:22 79° SE
[s.n.58457] 2.2 16:31:06 10° WNW 16:33:43 86° SSW 16:33:52 76° SE
[s.n.58455] 2.2 16:31:52 10° WNW 16:34:29 84° SSW 16:34:37 78° SE
[s.n.58454] 2.2 16:32:38 10° WNW 16:35:15 83° SSW 16:35:21 79° SSE
[s.n.58453] 2.2 16:33:26 10° WNW 16:36:02 82° SSW 16:36:06 80° SSE
[s.n.58452] 2.3 16:34:09 10° WNW 16:36:45 81° SSW 16:36:47 80° S
[s.n.58451] 2.3 16:34:55 10° WNW 16:37:32 80° SSW 16:37:32 80° SSW
CBERS 1 LM4 rocket 4.2 16:32:50 10° SSE 16:37:40 77° ENE 16:42:25 10° N
[s.n.58450] 2.4 16:35:41 10° WNW 16:38:16 78° SW 16:38:16 78° SW
[s.n.58446] 2.5 16:37:59 10° WNW 16:40:29 72° WSW 16:40:29 72° WSW
[s.n.58445] 2.6 16:38:46 10° WNW 16:41:15 70° WSW 16:41:15 70° WSW
Cosmos 1603 3.6 16:36:11 10° NNW 16:41:54 82° ENE 16:47:30 10° SSE
[s.n.58444] 2.6 16:39:33 10° WNW 16:41:59 67° WSW 16:41:59 67° WSW
[s.n.58443] 2.7 16:40:18 10° WNW 16:42:42 65° WSW 16:42:42 65° WSW
[s.n.58442] 2.8 16:41:08 10° WNW 16:43:30 63° WSW 16:43:30 63° WSW
[s.n.58441] 2.9 16:41:56 10° WNW 16:44:16 60° WSW 16:44:16 60° WSW
[s.n.58440] 2.9 16:42:39 10° WNW 16:44:58 59° WSW 16:44:58 59° WSW
Cosmos 192 4.4 16:40:43 10° SSW 16:45:35 75° WNW 16:49:36 15° NNE
SKYMED 2 3.7 16:41:21 10° N 16:45:42 73° WNW 16:50:00 10° SSW
[s.n.58439] 3.0 16:43:28 10° WNW 16:45:44 56° WSW 16:45:44 56° WSW
[s.n.58437] 3.1 16:44:13 10° WNW 16:46:28 55° WSW 16:46:28 55° WSW
[s.n.58438] 3.2 16:44:59 10° WNW 16:47:13 53° WSW 16:47:13 53° WSW
SL-08 R/B 3.1 16:46:50 16° NNE 16:50:29 85° ESE 16:55:09 10° SSW
USA 306 4.0 16:49:10 10° WNW 16:50:22 20° WSW 16:50:22 20° WSW
CZ-4B R/B 4.1 16:50:16 10° S 16:55:17 56° WSW 17:00:12 10° NNW
ATLAS CENTAUR R/B 3.4 16:50:02 10° NW 16:55:22 83° SW 17:06:00 10° SE
EO 1 Delta rocket 4.5 16:49:16 10° SSE 16:56:20 64° E 17:01:54 10° N
Cosmos 1782 4.2 16:55:18 10° SSW 16:58:56 37° WNW 17:02:35 10° N
SL-8 R/B 3.6 16:54:41 10° WNW 16:59:29 83° SW 17:01:00 44° SE
USA 305 2.6 16:56:10 10° NW 17:00:01 75° SW 17:00:25 66° S
NOAA 6 4.4 16:58:02 10° S 17:03:06 63° WSW 17:08:12 10° NNW
Cosmos 1515 3.9 16:59:58 10° S 17:02:50 56° S 17:02:50 56° S
Cosmos 1943 4.5 17:00:23 10° NW 17:05:38 41° WSW 17:10:52 10° S
ATLAS 2AS CENTAUR R/B 2.8 17:02:03 10° NNW 17:08:37 47° NE 17:09:09 46° ENE
Radarsat Rocket 4.3 17:03:45 10° S 17:09:30 65° WSW 17:15:27 10° NNW
CZ-4B DEB 4.2 17:05:55 10° SSE 17:11:19 58° ENE 17:16:45 10° N
ISS -1.0 17:21:19 10° W 17:23:28 16° SW 17:24:35 14° SSW
SME Rocket 3.9 17:18:45 10° SSE 17:23:50 85° ENE 17:31:44 10° NNW
SL-4 R/B 4.1 17:22:21 10° SSW 17:23:04 15° SSW 17:23:04 15° SSW
Cosmos 2056 Rocket 4.5 17:20:30 10° SW 17:25:38 46° WNW 17:28:45 23° N
COSMOS 2455 2.7 17:20:20 10° SSW 17:26:20 85° ESE 17:27:02 71° NE
Lacrosse 5 3.3 17:26:27 10° W 17:30:48 28° NW 17:31:43 26° NNW
Cosmos 1954 Rocket 4.0 17:26:22 10° NNW 17:31:28 79° WNW 17:31:28 79° WNW
Lacrosse 4 Rocket 4.3 17:34:20 10° WNW 17:37:05 17° WSW 17:39:49 10° SW
SEDSat Delta rocket 4.5 17:32:33 10° WSW 17:36:53 34° SSW 17:36:53 34° SSW
Cosmos 2221 4.4 17:35:50 10° SW 17:39:28 27° WNW 17:41:02 22° NW
Cosmos 1553 Rocket 4.2 17:36:33 10° NNW 17:42:46 66° W 17:48:51 10° S
H-2A R/B 4.3 17:57:50 10° WSW 18:01:47 23° S 18:02:45 23° S
ATLAS 2AS CENTAUR R/B 4.5 18:53:26 10° NW 18:56:38 24° WNW 18:56:38 24° WNW
